カタログに戻る

COSMOS 2251 DEB

運用中LEO
NORAD 38055·DEBRIS·🇷🇺 Russia

打ち上げ Jun 16, 1993 から Plesetsk Cosmodrome

Loading…

次のパス (今後24時間)

TLE

最新Source: Space-Track

元期: Sep 14, 2026, 14:53 UTC

1 38055U 93036BRM 26257.62022562  .00003765  00000-0  48906-3 0  9990
2 38055  74.0098  23.5907 0062223  82.1757 291.4790 14.79731173647600

AllMySatでCOSMOS 2251 DEBをリアルタイム追跡

Download on the App Store